Location: Baia Mare
(47.6567°N, 23.5850°E)
Time: 17:51:45
(UTC+02:00)

ISS - Pass Details

Date: 08 March 2020
Orbit: 417 x 422 km, 51.6° (Epoch: 07 December)

Event Time Altitude Azimuth Distance (km) Brightness Sun altitude
Exits shadow 05:35:54 24° 288° (WNW) 915 -2.6 -13.7°
Maximum altitude 05:37:46 72° 208° (SSW) 442 -3.8 -13.3°
Drops below altitude 10° 05:41:07 10° 123° (ESE) 1,496 -0.2 -12.8°
Sets 05:43:13 0° 121° (ESE) 2,360 0.9 -12.4°
